Regional Weather Roundup
Issued by NWS Newport/Morehead, NC

Current Version | Previous Version | Text Only | Print | Product List | Glossary On
Versions: 1 2 3 4 5 6 7 8 9 10 11 12 13 14 15 16 17 18 19 20 21 22 23 24 25 26 27 28 29 30 31 32 33 34 35 36 37 38 39 40 41 42 43 44 45 46 47 48 49 50
000
ASUS42 KMHX 021625
RWRMHX
WEATHER ROUNDUP FOR EASTERN NORTH CAROLINA
NATIONAL WEATHER SERVICE NEWPORT/MOREHEAD CITY NC
1200 PM EDT SUN AUG 02 2015

NOTE: "FAIR" INDICATES FEW OR NO CLOUDS BELOW 12,000 FEET
WITH NO SIGNIFICANT WEATHER AND/OR OBSTRUCTIONS TO VISIBILITY

NCZ015>017-031-032-045>047-102-103-021700-
NORTH COAST

CITY           SKY/WX    TMP DP  RH WIND       PRES   REMARKS
EDENTON          N/A     89  64  44 SW3       29.94S
ELIZABETH CITY SUNNY     89  69  51 S5        29.94R
KITTY HAWK     SUNNY     92  68  45 E6        29.94R
MANTEO         SUNNY     88  67  51 W6        29.95S

$$

NCZ045>047-081-094-103-104-021700-
CENTRAL COAST

CITY           SKY/WX    TMP DP  RH WIND       PRES   REMARKS
FRISCO         SUNNY     85  73  67 S7        29.95S
SWANQUARTER      N/A     90 N/A N/A S5        29.91S

$$

NCZ095-097-098-100-101-021700-
SOUTHERN COAST

CITY           SKY/WX    TMP DP  RH WIND       PRES   REMARKS
BEAUFORT       SUNNY     85  78  80 S7        29.95S
CEDAR ISLAND     N/A     86 N/A N/A NE3       29.97F
JACKSONVILLE   SUNNY     90  72  55 VRB6      29.94S
PINEY ISLAND   SUNNY    N/A N/A N/A E7        29.95S
WILMINGTON     SUNNY     91  72  53 CALM      29.95R


$$

NCZ011>013-027>030-043-044-078>080-089-090>093-098-021700-
COASTAL PLAIN

CITY           SKY/WX    TMP DP  RH WIND       PRES   REMARKS
AHOSKIE        MOSUNNY   82  66  58 CALM      29.96S
CLINTON        SUNNY     90  63  40 NE5       29.97S
ELIZABETHTOWN  SUNNY     90  60  35 CALM      29.96S
GOLDSBORO      SUNNY     89  63  40 NW7       29.94S
GREENVILLE     SUNNY     90  64  43 CALM      29.97S
HAVELOCK       MOSUNNY   90  74  59 NE5       29.95S
KENANSVILLE    SUNNY     88  59  37 CALM      29.97S
KINSTON        SUNNY     88  63  42 NE7       29.96S
NEW BERN       SUNNY     91  71  51 VRB3      29.96R
RICHLANDS      SUNNY     91  70  49 NW5       29.95S
ROCKY MOUNT    SUNNY     89  60  37 MISG      29.97R
WASHINGTON     SUNNY     88  67  50 CALM      29.95S
WHITEVILLE     SUNNY     88  69  54 E3        29.95S

$$

AMZ130-135-150-152-154-156-158-170-250-252-270-ANZ085-086-088-633-658-670-021700-
MARINE OBSERVATIONS

STATION/POSITION TIME  TEMP    WIND        PRES    WAVE   SWELL
                       AIR SEA DIR/SP/G            HT/PER HT/PER
                 (UTC) (F)     (DEG/KT/KT) (MB)    (FT/S) (FT/S)
CHESAPEAKE LIGHT 1600   80      30/  6/  7 1014.5
64 E VA BEACH    1550   81 83  130/  6/  8 1013.7    3/ 7   3/ 7
DUCK             1600   85 78  110/  5/  6 1013.1
2 E DUCK         1511      81                N/A     2/ 9
OREGON INLET     1600   84 82   80/  5/  7 1014.0
13E OREGON INLT  1600      84                N/A     2/ 7   2/11
HATTERAS CG      1600   84 81  290/  3/  4 1014.0
DIAMOND BUOY     1550   83 87  160/  4/  6 1014.5    3/ 7   3/ 7
CAPE LOOKOUT     1600   82     160/  6/  7 1014.0
BEAUFORT LAB     1600   82 82  180/  8/  9 1013.5
30 SE NEW RVR IN NOT AVBL
27 SE WRIGHTSVLE 1600   80 83  180/  2/  4   N/A
5 SE WRIGHTSVLE  1508   83 83   90/  2/  4 1014.3
225 S CAPE HAT   1550   83 81  220/ 14/ 17 1016.5    7/ 8   5/ 8
41 SE CHARLESTON 1550   76 83  350/  2/  4 1014.5    4/ 7   3/ 7

$$


USA.gov is the U.S. government's official web portal to all federal, state and local government web resources and services.